Location: Asheville, NC
(35.6000°N, 82.5500°W)
Time: 00:16:29
(UTC-04:00)

Hubble Space Telescope - Pass Details

Date: 11 October 2017
Orbit: 537 x 541 km, 28.5° (Epoch: 22 October)

Event Time Altitude Azimuth Distance (km) Brightness Sun altitude
Exits shadow 06:34:16 - 222° (SW) 1,830 3.1 -12.8°
Reaches altitude 10° 06:34:41 10° 217° (SW) 1,783 3.1 -12.7°
Maximum altitude 06:35:41 11° 203° (SSW) 1,735 3.1 -12.5°
Drops below altitude 10° 06:36:40 10° 188° (S) 1,782 3.3 -12.3°
Sets 06:40:41 0° 150° (SSE) 2,670 4.8 -11.5°
